Stations météo

réclame
Mon MeteoGroup
Gilze-Rijen, Pays-Bas (6350): Température de l'air & dewpoint: 11.11.2017 18:00:00 - 17.11.2017 18:00:00 (CET)Gilze-Rijen, Pays-Bas (6350): Température de l'air 5cm: 11.11.2017 18:00:00 - 17.11.2017 18:00:00 (CET)Gilze-Rijen, Pays-Bas (6350): Vitesse du vent & gusts: 11.11.2017 18:00:00 - 17.11.2017 18:00:00 (CET)Gilze-Rijen, Pays-Bas (6350): Direction du vent: 11.11.2017 18:00:00 - 17.11.2017 18:00:00 (CET)Gilze-Rijen, Pays-Bas (6350): reduced air pressure: 11.11.2017 18:00:00 - 17.11.2017 18:00:00 (CET)Gilze-Rijen, Pays-Bas (6350): visibility: 11.11.2017 18:00:00 - 17.11.2017 18:00:00 (CET)Gilze-Rijen, Pays-Bas (6350): Quantités de précipitations: 11.11.2017 18:00:00 - 17.11.2017 18:00:00 (CET)
Date & Time tt [°C] td [°C] tt 5cm [°C] ff [km/h] ff [knt] fx [km/h] fx [knt] dd ppp [hPa] vv [km] rr [mm]
17.11.2017 18:00:00 7,0 3,2 3,9 5 3 11 6 W 1026,9 10 0,0
17.11.2017 17:00:00 5,6 2,7 4,3 5 3 7 4 SW 1027,0 10 0,0
17.11.2017 16:00:00 8,5 3,6 8,0 2 1 - - - 1027,0 10 0,0
17.11.2017 15:00:00 9,4 2,2 8,7 4 2 11 6 - 1027,3 10 0,0
17.11.2017 14:00:00 9,6 2,0 9,7 8 4 18 10 WNW 1027,7 10 0,0
17.11.2017 13:00:00 9,8 1,4 10,2 5 3 - - NW 1027,9 10 0,0
17.11.2017 12:00:00 9,9 4,9 10,6 2 1 7 4 - 1028,0 10 0,0
17.11.2017 11:00:00 6,7 5,7 6,7 2 1 4 2 - 1028,4 10 0,0
17.11.2017 10:00:00 3,3 3,1 2,4 2 1 - - - 1028,3 10 0,0
17.11.2017 09:00:00 0,9 0,7 -0,4 4 2 7 4 SSW 1028,2 10 0,0
17.11.2017 08:00:00 0,8 0,6 -2,4 2 1 4 2 W 1027,7 1,3 0,0
17.11.2017 07:00:00 1,4 1,2 -2,1 2 1 - - WSW 1027,3 0,6 0,0
17.11.2017 06:00:00 1,8 1,6 -0,7 2 1 4 2 W 1026,9 0,9 0,0
17.11.2017 05:00:00 2,4 2,2 0,2 4 2 11 6 W 1026,6 1,5 0,0
17.11.2017 04:00:00 4,4 4,0 1,6 8 4 - - WNW 1026,3 10 0,0
17.11.2017 03:00:00 5,0 4,7 2,1 8 4 11 6 NW 1026,1 10 0,0
17.11.2017 02:00:00 6,5 6,2 5,1 9 5 11 6 WNW 1025,7 6 0,0
17.11.2017 01:00:00 8,3 7,9 8,0 8 4 - - WNW 1025,2 7 0,0
17.11.2017 00:00:00 9,1 8,5 8,8 8 4 25 14 N 1024,7 10 0,0
16.11.2017 23:00:00 9,6 8,6 9,3 16 9 29 16 NNW 1024,3 10 0,0
16.11.2017 22:00:00 9,8 9,4 9,4 11 6 - - WSW 1023,8 3,1 0,1
16.11.2017 21:00:00 10,0 9,3 9,6 8 4 14 8 WSW 1023,5 3,5 0,0
16.11.2017 20:00:00 10,2 9,3 9,8 9 5 14 8 WSW 1023,2 4,5 0,0
16.11.2017 19:00:00 9,8 9,1 9,5 9 5 - - SSW 1022,8 4,2 0,0
16.11.2017 18:00:00 9,6 8,9 9,3 8 4 14 8 SSW 1022,6 4,1 0,0
16.11.2017 17:00:00 9,7 8,8 9,4 8 4 22 12 SSW 1022,4 4,4 0,0
16.11.2017 16:00:00 9,7 8,8 9,7 11 6 - - SSW 1022,1 3,8 0,0
16.11.2017 15:00:00 9,6 8,8 9,6 11 6 18 10 SW 1022,3 3,1 0,0
16.11.2017 14:00:00 9,3 8,6 9,5 11 6 22 12 SSW 1022,6 4,0 0,0
16.11.2017 13:00:00 9,1 8,3 9,3 13 7 - - SSW 1022,8 4,7 0,0
16.11.2017 12:00:00 9,0 8,5 9,1 11 6 18 10 SSW 1023,2 5 0,1
16.11.2017 11:00:00 8,7 8,1 8,7 11 6 22 12 SSW 1023,4 1,9 0,6
16.11.2017 10:00:00 8,7 7,9 8,6 15 8 - - S 1023,2 5 0,0
16.11.2017 09:00:00 8,5 7,8 8,3 13 7 22 12 SSW 1023,3 3,8 0,0
16.11.2017 08:00:00 8,4 7,8 8,3 13 7 22 12 SSW 1022,9 3,8 0,0
16.11.2017 07:00:00 8,5 7,9 8,4 13 7 - - SSW 1022,7 4,2 0,0
16.11.2017 06:00:00 8,6 8,1 8,5 13 7 18 10 S 1022,9 3,0 0,0
16.11.2017 05:00:00 8,7 8,4 8,6 11 6 18 10 S 1023,1 2,6 0,0
16.11.2017 04:00:00 8,8 8,4 8,7 9 5 - - SSW 1023,6 2,6 0,0
16.11.2017 03:00:00 8,9 8,5 8,8 13 7 18 10 SSW 1023,9 2,4 0,0
16.11.2017 02:00:00 9,0 8,6 8,8 13 7 18 10 S 1023,9 2,7 0,0
16.11.2017 01:00:00 9,0 8,7 8,9 9 5 - - S 1024,2 3,1 0,3
16.11.2017 00:00:00 9,2 8,8 9,1 11 6 14 8 S 1024,6 2,6 0,0
15.11.2017 23:00:00 9,3 9,0 9,2 9 5 14 8 S 1024,8 4,1 0,8
15.11.2017 22:00:00 9,4 9,0 9,3 8 4 - - SSW 1025,1 2,3 0,1
15.11.2017 21:00:00 9,4 9,2 9,3 8 4 14 8 S 1024,9 4,7 0,0
15.11.2017 20:00:00 9,6 9,3 9,5 9 5 14 8 S 1025,0 6 0,0
15.11.2017 19:00:00 9,7 9,5 9,6 9 5 - - S 1025,1 4,0 0,0
15.11.2017 18:00:00 9,7 9,4 9,6 9 5 11 6 S 1025,0 3,9 0,0
15.11.2017 17:00:00 9,6 9,3 9,6 8 4 14 8 S 1025,2 2,6 0,0
15.11.2017 16:00:00 9,8 9,2 9,8 11 6 - - S 1025,2 2,9 0,0
15.11.2017 15:00:00 10,0 9,3 10,1 8 4 14 8 SSW 1025,1 4,9 0,0
15.11.2017 14:00:00 10,0 9,3 10,5 9 5 14 8 SSW 1025,1 5 0,0
15.11.2017 13:00:00 9,5 9,0 10,0 11 6 - - SSW 1025,3 2,9 0,0
15.11.2017 12:00:00 9,1 8,6 9,4 11 6 18 10 SSW 1025,6 1,8 0,0
15.11.2017 11:00:00 9,1 8,5 9,1 13 7 18 10 SSW 1025,7 3,6 0,0
15.11.2017 10:00:00 8,6 8,2 8,8 11 6 - - SW 1025,4 4,4 0,0
15.11.2017 09:00:00 8,2 7,9 8,2 9 5 18 10 SSW 1025,5 2,4 0,0
15.11.2017 08:00:00 8,1 7,8 8,0 11 6 18 10 SSW 1025,0 2,6 0,0
15.11.2017 07:00:00 8,0 7,7 7,9 11 6 - - SSW 1024,7 2,4 0,0
15.11.2017 06:00:00 8,0 7,7 8,0 11 6 18 10 SSW 1024,6 2,5 0,1
15.11.2017 05:00:00 8,0 7,7 7,9 11 6 18 10 SSW 1024,6 2,0 0,1
15.11.2017 04:00:00 8,0 7,7 7,9 13 7 - - SSW 1024,4 1,8 0,1
15.11.2017 03:00:00 8,2 7,4 8,1 11 6 18 10 SSW 1025,0 4,6 0,0
15.11.2017 02:00:00 8,2 7,3 8,0 13 7 22 12 SSW 1024,9 6 0,0
15.11.2017 01:00:00 8,2 7,2 8,0 11 6 - - SSW 1025,0 7 0,0
15.11.2017 00:00:00 8,2 7,1 8,0 11 6 18 10 SSW 1024,8 9 0,0
14.11.2017 23:00:00 8,4 7,1 8,2 11 6 22 12 SSW 1024,8 6 0,0
14.11.2017 22:00:00 8,5 7,1 8,2 11 6 - - SSW 1024,7 10 0,0
14.11.2017 21:00:00 8,5 7,1 8,2 13 7 18 10 SSW 1024,6 10 0,0
14.11.2017 20:00:00 8,3 7,0 7,9 11 6 18 10 SSW 1024,6 10 0,0
14.11.2017 19:00:00 8,2 7,1 7,9 11 6 - - SW 1024,2 10 0,0
14.11.2017 18:00:00 7,9 7,3 7,8 13 7 22 12 SSW 1023,9 7 0,0
14.11.2017 17:00:00 8,0 7,1 7,9 11 6 22 12 SW 1023,7 3,1 0,0
14.11.2017 16:00:00 8,9 6,2 8,6 13 7 - - SW 1023,6 3,6 0,0
14.11.2017 15:00:00 9,3 5,8 9,2 15 8 29 16 SW 1023,4 10 0,0
14.11.2017 14:00:00 9,3 5,3 9,3 16 9 29 16 SW 1023,5 10 0,0
14.11.2017 13:00:00 9,0 5,0 9,2 15 8 - - SW 1023,5 10 0,0
14.11.2017 12:00:00 8,0 4,6 8,2 16 9 29 16 SSW 1023,7 10 0,0
14.11.2017 11:00:00 7,2 4,2 7,3 18 10 29 16 SSW 1024,3 10 0,0
14.11.2017 10:00:00 6,3 3,9 6,3 15 8 - - SSW 1023,9 10 0,0
14.11.2017 09:00:00 5,4 3,4 4,9 11 6 18 10 SSW 1023,7 10 0,0
14.11.2017 08:00:00 5,2 3,9 4,7 11 6 18 10 SSW 1023,7 10 0,0
14.11.2017 07:00:00 4,9 3,8 4,2 8 4 - - SSW 1023,6 10 0,0
14.11.2017 06:00:00 4,6 3,6 3,6 11 6 14 8 SW 1023,2 10 0,0
14.11.2017 05:00:00 4,2 3,5 3,1 9 5 14 8 SSW 1023,5 10 0,1
14.11.2017 04:00:00 3,8 3,0 2,6 9 5 - - SW 1023,7 10 0,0
14.11.2017 03:00:00 3,1 2,2 2,3 5 3 11 6 WSW 1023,9 10 0,0
14.11.2017 02:00:00 2,4 1,5 1,1 9 5 14 8 SW 1024,0 10 0,0
14.11.2017 01:00:00 3,4 2,1 2,0 9 5 - - WSW 1024,0 10 0,0
14.11.2017 00:00:00 0,7 0,2 -2,0 5 3 11 6 WSW 1024,0 3,3 0,0
13.11.2017 23:00:00 0,9 0,5 -1,6 4 2 11 6 W 1023,9 10 0,0
13.11.2017 22:00:00 2,1 1,4 -0,7 5 3 - - WSW 1023,8 9 0,0
13.11.2017 21:00:00 2,1 0,9 0,3 5 3 11 6 W 1023,4 10 0,0
13.11.2017 20:00:00 2,6 1,7 -0,2 5 3 7 4 W 1023,0 10 0,0
13.11.2017 19:00:00 3,9 2,6 1,7 2 1 - - W 1023,0 10 0,0
13.11.2017 18:00:00 5,0 2,8 2,2 8 4 14 8 WNW 1022,4 10 0,0
13.11.2017 17:00:00 7,1 3,5 5,4 9 5 18 10 NNW 1021,7 10 0,0
13.11.2017 16:00:00 8,3 3,0 7,5 13 7 - - NNW 1021,3 10 0,0
13.11.2017 15:00:00 8,5 3,0 8,0 15 8 47 25 NW 1020,6 10 0,0
13.11.2017 14:00:00 10,2 3,4 10,5 21 11 40 21 NNW 1020,1 10 0,0
13.11.2017 13:00:00 10,0 3,8 10,1 16 9 36 19 - 1020,1 10 0,0
13.11.2017 12:00:00 9,8 4,2 10,1 22 12 36 19 N 1020,0 10 0,0
13.11.2017 11:00:00 9,4 4,7 9,3 11 6 22 12 NW 1019,5 10 0,0
13.11.2017 10:00:00 8,2 3,9 8,1 16 9 29 16 NNW 1018,9 10 0,0
13.11.2017 09:00:00 6,3 3,1 4,0 11 6 18 10 NW 1018,3 10 0,0
13.11.2017 08:00:00 3,8 2,2 2,1 13 7 18 10 WNW 1017,3 10 0,0
13.11.2017 07:00:00 4,0 2,2 2,3 11 6 22 12 WNW 1016,4 10 0,0
13.11.2017 06:00:00 6,2 2,7 4,8 13 7 25 14 NW 1015,6 10 0,0
13.11.2017 05:00:00 5,2 3,3 4,4 16 9 29 16 NW 1015,0 10 0,0
13.11.2017 04:00:00 5,9 3,5 5,0 15 8 32 18 NW 1013,9 10 0,0
13.11.2017 03:00:00 6,7 3,3 6,0 22 12 36 19 NW 1013,4 10 0,0
13.11.2017 02:00:00 4,9 2,8 3,3 15 8 18 10 WNW 1012,5 10 0,0
13.11.2017 01:00:00 5,5 3,2 4,6 16 9 32 18 NNW 1012,0 10 0,0
13.11.2017 00:00:00 5,2 3,4 4,3 13 7 22 12 WNW 1011,0 10 0,0
12.11.2017 23:00:00 4,2 2,6 3,0 11 6 18 10 W 1010,2 10 0,0
12.11.2017 22:00:00 4,5 3,1 3,3 16 9 - - WNW 1009,3 10 0,0
12.11.2017 21:00:00 3,5 2,2 2,4 11 6 22 12 NW 1007,9 10 0,0
12.11.2017 20:00:00 5,4 3,4 4,6 16 9 32 18 NW 1006,7 10 0,0
12.11.2017 19:00:00 5,1 3,6 4,1 18 10 - - NW 1005,5 10 0,0
12.11.2017 18:00:00 4,2 3,5 3,8 9 5 14 8 W 1003,9 10 0,0
12.11.2017 17:00:00 5,2 3,7 4,7 15 8 25 14 WNW 1002,5 10 0,0
12.11.2017 16:00:00 6,0 3,5 5,7 16 9 25 14 WNW 1002,0 10 0,0
12.11.2017 15:00:00 6,1 4,0 6,2 13 7 25 14 W 1001,4 10 0,0
12.11.2017 14:00:00 5,0 3,6 4,7 16 9 40 21 W 1001,5 10 1,9
12.11.2017 13:00:00 5,4 2,8 4,9 22 12 43 23 W 1001,3 10 0,1
12.11.2017 12:00:00 7,0 5,1 7,4 13 7 18 10 NW 1001,4 10 0,2
12.11.2017 11:00:00 5,9 4,6 6,6 8 4 14 8 WSW 1002,0 10 0,0
12.11.2017 10:00:00 4,8 3,9 4,7 5 3 22 12 SSW 1002,5 10 0,6
12.11.2017 09:00:00 4,8 3,6 4,6 18 10 29 16 NW 1003,9 9 1,4
12.11.2017 08:00:00 5,0 3,7 4,5 8 4 11 6 SW 1003,9 10 0,0
12.11.2017 07:00:00 4,9 3,8 4,4 8 4 11 6 SW 1004,5 10 0,0
12.11.2017 06:00:00 4,7 3,9 4,3 8 4 14 8 SSW 1005,8 10 0,0
12.11.2017 05:00:00 4,9 3,8 4,4 9 5 14 8 SSW 1006,8 10 0,0
12.11.2017 04:00:00 5,0 3,7 4,1 8 4 14 8 SSW 1007,5 10 0,0
12.11.2017 03:00:00 4,9 3,8 4,4 8 4 14 8 SSW 1008,3 10 0,3
12.11.2017 02:00:00 4,4 3,4 3,4 9 5 14 8 W 1009,2 9 0,0
12.11.2017 01:00:00 3,7 3,0 2,6 8 4 11 6 SSW 1009,6 10 0,0
12.11.2017 00:00:00 5,2 4,1 4,6 9 5 14 8 SW 1010,2 10 0,0
11.11.2017 23:00:00 5,1 4,2 3,9 9 5 14 8 SW 1010,7 10 0,0
11.11.2017 22:00:00 5,1 4,2 4,3 2 1 11 6 - 1010,3 6 0,1
11.11.2017 21:00:00 4,4 3,1 4,4 9 5 14 8 W 1010,3 10 0,0
11.11.2017 20:00:00 4,6 3,6 2,8 5 3 11 6 WSW 1010,0 10 0,0
11.11.2017 19:00:00 5,5 4,2 3,3 8 4 - - W 1009,3 10 0,0
11.11.2017 18:00:00 5,9 4,2 2,4 5 3 14 8 W 1009,0 10 0,0

tt = Température de l'air
td = dewpoint
tt 5cm = Température de l'air 5cm
ff = Vitesse du vent
fx = gusts
dd = Direction du vent
ppp = reduced air pressure
vv = visibility
rr = Quantités de précipitations

stations d'obs. à proximité